RH
72 73 72 75 71 65 63 62 60 59 59 60 60 59 61 60 57 54 55 53 53 54 52 50 49 47 46 45 42 42 49 52 47 50 51 51 48 47 44 40 36 36 31
80 82 82 80 74 68 65 64 60 60 58 56 55 54 55 57 56 58 58 55 53 55 53 55 55 53 51 50 48 50 48 47 49 46 46 50 50 47 42 38 38 37 32
79 83 86 85 76 71 67 61 58 60 57 54 57 60 58 60 63 62 62 60 55 57 57 58 56 56 54 54 53 53 51 52 52 50 47 52 46 48 48 44 38 38 35
66 72 77 82 79 67 63 60 60 60 58 58 61 64 64 63 60 62 58 57 56 57 59 61 60 59 56 56 56 52 53 52 55 54 49 50 46 45 49 53 47 39 36
71 68 70 72 74 67 66 62 69 71 64 62 60 62 62 56 56 66 64 58 58 58 60 62 62 60 58 58 57 58 57 54 52 55 56 54 52 50 51 47 51 48 42
66 65 65 72 78 69 68 66 65 76 72 70 63 64 65 66 76 77 69 59 58 60 61 62 62 60 59 60 62 61 61 58 55 53 54 53 53 52 54 54 48 49 45
64 72 78 81 82 77 75 70 72 77 71 64 62 62 63 67 74 73 72 72 60 70 66 63 63 65 66 63 62 65 65 62 60 57 54 52 51 48 49 50 53 54 46
62 70 75 78 77 77 78 71 69 73 74 76 75 72 67 59 69 70 66 58 69 71 69 70 74 77 76 76 74 66 66 63 65 65 62 58 56 54 52 54 57 58 51
71 75 74 70 76 74 73 71 67 65 67 73 72 70 69 69 73 68 65 66 66 66 68 75 78 78 78 79 78 78 70 65 66 67 66 65 61 61 59 56 55 57 59
66 64 62 63 65 67 72 71 68 65 62 65 70 71 65 58 63 58 64 61 67 66 68 72 76 76 78 79 81 81 76 70 67 66 66 65 63 62 64 64 57 54 56
63 62 60 58 59 59 64 72 75 76 70 67 65 71 70 66 58 59 61 62 61 58 64 68 63 69 78 78 81 80 78 76 70 66 70 68 63 64 62 64 60 59 55
58 58 58 58 59 61 63 66 68 69 69 68 72 76 73 72 76 73 67 62 63 60 67 57 58 62 64 66 76 79 78 69 71 67 72 73 66 66 61 60 60 58 54
54 53 55 56 57 58 60 67 71 74 75 70 76 78 81 86 80 75 77 79 79 77 66 69 63 62 63 64 65 68 69 69 67 66 65 68 67 68 65 62 60 57 49
52 51 50 51 53 55 57 60 67 70 77 81 80 78 78 80 83 84 86 88 76 78 82 78 79 78 73 71 70 71 73 71 72 72 68 64 66 67 65 65 63 61 61
48 48 48 47 50 52 55 57 64 64 69 76 80 79 73 68 75 79 81 82 86 92 89 88 88 83 86 87 86 86 86 86 86 85 80 75 74 80 72 67 66 64 65
45 44 45 45 47 46 49 55 60 63 62 63 72 69 70 73 74 74 79 83 82 81 82 90 95 93 93 96 97 92 91 92 91 90 87 85 93 89 88 86 81 70 71
42 40 42 43 44 45 46 53 56 58 58 61 61 61 63 69 73 71 78 82 86 84 83 84 85 89 92 99 99 99 94 94 94 93 91 90 90 93 85 89 88 83 78
41 38 39 40 41 41 45 45 52 57 55 57 57 58 62 62 63 64 71 74 80 87 90 86 84 86 84 95 95 95 93 98 96 95 94 94 92 93 92 89 89 88 81
40 39 39 41 39 39 42 42 49 56 49 51 54 56 58 59 59 62 62 62 70 75 82 86 85 86 83 91 93 92 88 91 95 97 96 96 95 94 95 95 96 94 90
38 40 39 41 39 41 40 43 48 51 47 51 54 52 53 51 52 52 52 56 58 62 69 76 80 82 77 81 88 88 82 89 86 88 92 99 98 97 97 97 97 98 96
39 40 39 39 41 41 42 44 45 46 49 51 52 52 50 52 48 49 52 55 54 55 62 67 71 74 77 78 84 87 80 78 84 87 90 91 97 97 98 96 97 96 91
42 40 40 41 42 44 43 44 45 49 50 52 51 50 50 48 46 53 53 52 54 59 61 64 66 67 67 74 78 84 84 83 88 91 85 91 96 96 96 97 94 94 93
40 45 47 44 44 46 48 49 50 52 53 52 51 51 50 48 51 54 55 58 59 63 62 63 65 65 64 68 74 76 81 82 82 76 85 92 96 95 95 96 96 95 97
52 55 54 53 53 54 54 56 55 60 64 62 58 54 54 59 55 56 56 61 64 66 65 67 69 69 69 69 71 72 72 76 78 82 83 92 94 93 94 96 98 98 96
50 51 50 52 54 54 56 55 56 59 61 59 58 58 63 67 64 62 64 64 62 64 72 72 70 73 76 68 70 74 78 82 82 88 90 98 99 98 99 99 99 98 98
51 49 51 53 56 58 58 57 60 62 64 62 56 59 61 60 59 60 61 60 65 68 69 70 71 67 70 70 71 73 76 78 80 88 96 98 98 98 98 99 99 99 98
Wind_Speed
14 12 14 14 14 15 16 15 14 14 10 9 9 8 7 7 6 6 7 7 7 7 7 5 6 5 6 6 7 5 7 4 5 5 3 3 4 5 4 4 4 5 5
15 14 13 12 14 16 16 15 15 14 11 9 8 7 7 7 7 6 7 8 8 9 7 7 6 6 5 7 8 8 5 3 7 4 3 4 5 6 6 5 5 6 5
18 16 14 14 15 17 17 16 17 16 13 12 8 6 6 5 6 7 6 8 9 9 8 8 6 7 6 6 8 8 8 5 6 6 4 3 4 3 4 8 6 7 6
17 17 17 17 16 19 18 18 16 15 14 14 11 12 9 8 7 8 8 8 10 9 9 8 8 7 6 7 7 7 7 6 6 5 6 4 3 3 3 4 7 7 8
15 19 19 17 16 18 17 16 13 12 13 15 13 11 11 9 7 7 8 9 9 10 10 9 9 8 7 8 8 8 9 7 6 7 4 7 5 5 5 6 4 5 8
17 17 16 12 11 15 16 15 17 14 14 14 16 16 14 11 5 5 7 7 7 7 10 10 10 9 9 9 8 9 10 9 8 6 7 7 4 6 6 7 8 7 4
15 15 13 12 11 15 15 15 15 15 15 17 18 17 16 15 11 8 7 6 7 6 9 12 12 9 9 9 9 9 10 10 9 10 8 8 8 7 7 7 8 6 5
13 14 15 14 16 17 16 17 18 17 14 15 15 13 14 11 9 10 7 9 8 8 11 11 9 10 8 8 7 8 9 10 10 12 10 8 8 7 7 8 7 8 6
5 2 1 7 12 15 16 17 18 18 17 15 14 14 12 12 9 11 10 8 9 8 9 11 11 11 11 10 9 7 10 10 11 11 11 10 8 7 8 8 8 8 7
4 4 5 5 4 4 6 11 14 16 17 18 14 12 14 16 14 13 13 13 10 11 10 11 12 12 12 11 11 9 10 10 10 9 12 11 9 9 8 8 8 8 9
4 3 4 6 7 6 5 6 4 9 11 10 12 12 11 13 15 13 13 12 13 14 14 12 15 14 13 13 12 13 12 13 13 13 13 14 12 8 8 7 7 8 8
4 4 4 5 6 7 7 7 7 6 5 5 4 9 10 9 10 11 12 12 12 14 13 15 15 15 15 14 13 13 12 17 15 17 14 15 8 12 10 8 11 10 10
4 5 4 5 6 6 7 7 8 7 7 6 5 2 3 4 9 12 11 9 10 10 13 11 14 14 14 14 15 16 16 17 17 16 16 16 15 14 11 12 10 10 9
6 5 5 4 5 5 6 7 7 8 7 6 6 6 6 6 6 5 6 7 11 12 9 11 10 10 11 12 13 12 13 14 14 13 15 16 16 16 15 13 14 9 8
6 5 4 4 4 4 5 6 7 7 8 7 6 7 8 8 7 7 7 7 6 4 9 9 10 11 10 9 11 12 13 13 13 13 13 15 16 17 17 10 12 13 10
6 5 3 3 3 4 5 5 6 7 7 7 7 8 8 9 9 9 9 8 7 7 7 6 7 10 8 11 15 14 11 13 13 13 13 13 13 15 18 19 17 16 13
9 7 4 3 3 5 5 5 5 5 6 6 6 7 8 8 8 9 9 9 8 8 8 7 6 6 6 8 8 13 12 11 12 12 12 11 9 13 13 17 20 19 22
8 6 4 3 2 3 4 5 5 4 5 6 7 8 8 8 8 8 8 8 8 8 8 8 7 7 5 8 9 9 7 9 11 11 12 12 12 11 13 12 11 14 15
6 5 3 1 1 3 4 4 3 3 5 6 6 7 7 8 8 8 9 8 8 7 7 7 8 8 7 7 9 9 6 7 8 8 10 11 12 12 17 12 11 11 12
6 5 3 2 1 3 5 4 4 3 5 6 7 8 8 8 9 8 9 9 9 10 8 9 9 11 11 9 8 8 5 7 7 8 9 11 14 13 14 13 11 11 12
6 4 2 2 3 4 4 2 4 5 7 7 7 7 7 8 8 9 8 8 10 10 10 10 9 10 9 10 12 13 8 8 8 7 7 6 10 13 12 17 11 12 8
5 3 2 2 3 4 5 5 4 6 6 7 7 8 8 7 7 9 8 9 9 9 9 9 8 7 9 11 12 14 15 14 9 9 9 8 11 15 16 14 18 15 8
7 5 4 4 3 3 4 5 6 7 7 7 7 7 7 7 7 9 9 8 7 7 8 7 8 8 7 8 15 17 17 16 11 9 11 17 15 15 12 16 16 14 7
5 5 5 4 3 1 1 2 4 5 7 7 8 7 8 8 7 6 6 7 7 7 7 7 8 9 8 8 7 8 10 14 11 12 9 9 10 10 9 8 8 7 7
6 5 5 4 3 0 2 2 3 4 5 5 5 5 5 6 7 6 6 6 7 8 9 9 9 10 9 9 16 16 11 10 13 16 9 5 4 5 5 5 5 5 6
5 4 4 4 3 0 2 4 4 4 5 5 5 5 5 5 5 6 7 8 10 13 15 18 14 10 18 21 21 20 22 23 24 12 9 7 6 6 6 6 5 6 8
Wind_Direction
165 166 165 168 182 180 177 175 171 170 168 170 173 168 171 170 175 178 178 183 178 180 180 171 169 180 184 181 178 164 162 154 163 157 166 183 199 205 196 191 195 185 191
165 166 167 169 186 183 183 180 180 177 183 179 178 180 180 185 183 180 191 190 186 183 185 187 188 191 191 186 182 181 171 169 190 210 197 204 190 214 208 207 211 208 201
171 172 173 178 190 191 190 187 186 185 188 183 176 183 173 174 180 183 185 195 199 193 198 198 192 189 196 196 195 195 195 185 191 228 274 200 238 168 182 217 216 216 218
186 181 185 189 193 197 194 192 191 191 194 190 189 192 197 192 196 189 194 193 200 203 205 203 202 197 199 207 203 203 210 211 198 206 233 258 316 262 204 203 221 226 231
194 192 195 195 197 202 199 196 190 190 194 194 202 201 209 208 192 175 191 198 200 204 207 209 207 207 205 210 207 204 209 215 224 215 184 225 237 255 268 279 186 229 232
203 203 201 188 199 207 204 202 197 195 193 197 204 211 215 211 184 183 182 189 202 204 209 212 216 218 217 214 211 214 218 219 224 225 220 220 214 223 233 251 271 263 226
204 203 197 192 198 204 207 207 203 204 206 204 205 206 213 212 196 184 187 178 191 194 212 210 213 218 221 219 214 215 221 222 224 225 230 233 242 251 246 263 270 275 253
198 199 207 205 207 202 206 209 209 209 202 198 204 204 210 214 202 196 198 208 193 198 204 201 204 206 201 204 213 226 225 225 228 231 228 234 235 229 235 244 257 256 244
53 104 173 219 218 215 215 210 211 214 207 207 202 206 210 210 201 206 206 204 204 206 197 195 200 206 206 203 198 210 224 224 230 233 231 228 234 227 229 230 230 247 266
63 24 11 5 352 336 313 232 224 220 214 213 206 204 207 219 212 212 209 212 208 213 209 206 205 206 206 207 203 211 222 225 230 231 230 228 229 225 223 222 227 230 245
91 44 22 12 1 360 18 19 348 255 242 242 227 218 213 213 220 222 222 226 225 224 216 213 216 216 210 207 205 213 216 218 227 226 232 233 228 226 222 218 223 226 224
116 85 54 41 35 20 13 26 22 21 8 350 313 248 247 241 244 241 235 232 229 227 219 224 223 222 223 226 216 220 215 225 225 230 225 233 226 227 226 218 223 224 221
141 122 87 58 42 33 18 15 19 11 359 348 342 338 37 309 259 247 240 241 232 234 234 233 229 229 225 227 224 228 230 229 229 229 230 231 226 226 222 220 223 222 220
150 129 106 74 53 44 30 18 9 4 353 352 9 7 7 4 350 341 351 297 246 240 235 232 235 235 238 237 239 237 240 237 234 236 238 234 228 225 224 220 221 213 209
154 141 125 98 64 44 34 21 12 6 359 352 360 4 355 350 353 347 343 338 334 303 240 229 228 235 231 228 228 227 228 232 234 233 233 234 232 226 229 221 221 213 210
156 140 123 94 62 41 27 20 15 5 9 18 10 358 354 351 354 343 337 332 335 338 324 338 262 232 229 222 223 229 225 228 231 236 234 235 233 237 235 229 229 208 203
165 155 139 96 35 21 7 12 6 8 21 17 12 7 358 348 346 339 335 336 332 330 326 323 325 324 341 5 282 240 239 236 232 234 239 238 228 224 233 230 232 228 225
161 154 142 130 73 18 6 351 3 19 21 17 10 2 356 350 343 339 337 333 328 324 323 316 318 312 310 331 331 327 305 263 253 241 238 241 236 220 219 228 228 229 230
145 139 118 79 29 8 357 343 359 15 12 4 357 353 346 340 338 337 334 328 324 315 309 307 306 303 297 317 321 319 306 277 276 273 258 245 243 234 212 222 225 228 233
138 144 125 125 77 14 349 331 357 8 9 354 340 334 334 333 330 329 329 324 318 310 309 306 306 307 301 304 311 312 289 283 284 280 274 264 257 256 213 216 219 226 231
139 128 118 99 26 356 341 4 355 2 346 334 327 328 329 326 323 323 321 320 318 312 307 303 304 303 304 310 320 320 307 293 287 282 279 273 256 257 243 217 224 223 221
136 109 112 81 48 16 344 356 7 349 335 331 326 330 333 329 325 322 321 320 314 309 307 309 307 307 307 305 308 312 309 301 290 286 284 279 259 250 247 229 237 232 195
153 145 143 136 112 44 17 348 353 336 333 327 331 331 330 336 330 327 322 319 316 313 313 312 308 308 311 310 311 307 306 304 296 292 290 284 267 259 257 250 240 225 180
165 156 157 153 144 87 33 349 329 333 331 333 336 336 338 336 336 327 321 318 316 317 313 312 309 308 309 309 309 306 309 307 301 300 296 285 271 258 262 258 240 216 187
163 167 167 164 152 11 302 312 316 313 315 320 323 332 322 326 326 320 311 310 313 315 312 309 306 307 305 306 304 306 306 305 301 305 291 265 255 255 251 247 235 204 183
170 179 176 175 156 228 301 316 326 327 330 330 340 332 323 330 321 319 316 309 304 308 306 306 303 301 303 304 304 307 304 300 299 291 284 264 243 248 250 237 223 209 197